Location: Unspecified
(0.0000°N, 0.0000°E)
Time: 06:35:49
(UTC+00:00)

AAUSAT CUBESAT 2 - Visible Passes

Search period start: 22 April 2019 00:00
Search period end: 02 May 2019 00:00
Orbit: 574 x 592 km, 97.5° (Epoch: 20 April)

Date Brightness Start Highest point End Pass type
(mag) Time Alt. Az. Time Alt. Az. Time Alt. Az.
22 Apr ? 19:28:09 10° SW 19:30:43 16° WSW 19:33:16 10° WNW visible
23 Apr ? 19:34:42 10° SW 19:36:40 13° WSW 19:38:37 10° WNW visible
24 Apr ? 19:41:45 10° WSW 19:42:37 11° WSW 19:43:28 10° W visible
26 Apr ? 18:15:33 10° SSE 18:19:23 39° E 18:23:12 10° N visible
27 Apr ? 18:21:22 10° SSE 18:25:20 49° E 18:29:16 10° N visible
28 Apr ? 18:27:14 10° SSE 18:31:17 62° ENE 18:35:18 10° N visible
29 Apr ? 18:33:08 10° SSE 18:37:14 79° E 18:41:17 10° N visible
30 Apr ? 18:39:05 10° S 18:43:10 83° W 18:47:14 10° NNW visible
01 May ? 18:45:04 10° S 18:49:07 67° WSW 18:53:09 10° NNW visible
